Stations météo

Publicité
Greifswalder Oie, Allemagne (10097): Température de l'air & dewpoint: 12.01.2018 06:00:00 - 18.01.2018 06:00:00 (CET)Greifswalder Oie, Allemagne (10097): Température de l'air 5cm & Température de l'air -5cm: 12.01.2018 06:00:00 - 18.01.2018 06:00:00 (CET)Greifswalder Oie, Allemagne (10097): Température de l'air -20cm & Température de l'air -100cm: 12.01.2018 06:00:00 - 18.01.2018 06:00:00 (CET)Greifswalder Oie, Allemagne (10097): water temperature: 12.01.2018 06:00:00 - 18.01.2018 06:00:00 (CET)Greifswalder Oie, Allemagne (10097): Vitesse du vent & gusts: 12.01.2018 06:00:00 - 18.01.2018 06:00:00 (CET)Greifswalder Oie, Allemagne (10097): Direction du vent: 12.01.2018 06:00:00 - 18.01.2018 06:00:00 (CET)Greifswalder Oie, Allemagne (10097): reduced air pressure: 12.01.2018 06:00:00 - 18.01.2018 06:00:00 (CET)Greifswalder Oie, Allemagne (10097): visibility: 12.01.2018 06:00:00 - 18.01.2018 06:00:00 (CET)Greifswalder Oie, Allemagne (10097): Ensoleillement: 12.01.2018 06:00:00 - 18.01.2018 06:00:00 (CET)Greifswalder Oie, Allemagne (10097): Quantités de précipitations: 12.01.2018 06:00:00 - 18.01.2018 06:00:00 (CET)
Date & Time tt [°C] td [°C] tt 5cm [°C] tt -5cm [°C] tt -20cm [°C] tt -100cm [°C] tw [°C] ff [km/h] ff [knt] fx [km/h] fx [knt] dd ppp [hPa] vv [km] sd [min] rr [mm]
18.01.2018 06:00:00 2,2 0,5 1,9 1,1 1,3 4,5 2,1 34 18 42 23 SW 996,6 28 0 0,0
18.01.2018 05:00:00 2,2 0,6 2,0 1,0 1,2 4,5 2,2 35 19 44 24 WSW 997,4 23 0 0,0
18.01.2018 04:00:00 2,1 0,8 1,5 0,7 1,2 4,5 2,2 35 19 53 28 SW 997,5 21 0 0,0
18.01.2018 03:00:00 1,8 0,7 1,3 0,6 1,2 4,5 2,1 42 23 55 30 SW 997,6 19 0 0,0
18.01.2018 02:00:00 1,7 0,4 1,0 0,5 1,2 4,5 2,1 42 23 52 28 WSW 997,3 23 0 0,0
18.01.2018 01:00:00 1,7 0,2 0,7 0,3 1,2 4,5 2,1 34 18 48 26 WSW 997,3 22 0 0,0
18.01.2018 00:00:00 1,6 0,3 0,7 0,5 1,2 4,5 2,1 37 20 49 26 WSW 997,0 18 0 0,0
17.01.2018 23:00:00 1,6 0,7 1,0 0,6 1,2 4,5 2,2 32 17 50 27 WSW 996,7 16 0 0,1
17.01.2018 22:00:00 1,7 0,3 0,8 0,6 1,2 4,5 2,2 41 22 52 28 WSW 996,0 18 0 0,0
17.01.2018 21:00:00 1,0 0,6 0,7 0,6 1,2 4,5 2,3 28 15 46 25 WNW 995,8 6 0 0,5
17.01.2018 20:00:00 1,1 0,6 0,9 0,7 1,2 4,5 2,3 42 23 54 29 W 994,8 18 0 0,0
17.01.2018 19:00:00 2,0 0,5 1,4 0,7 1,2 4,6 2,4 40 22 49 26 WSW 994,2 25 0 0,1
17.01.2018 18:00:00 1,9 0,4 1,2 0,5 1,2 4,6 2,4 44 24 53 29 WSW 993,3 8 0 0,0
17.01.2018 17:00:00 2,1 0,8 1,7 0,8 1,1 4,6 2,4 34 18 42 23 WSW 992,8 16 0 0,0
17.01.2018 16:00:00 2,0 0,8 1,8 1,1 1,0 4,6 2,4 34 19 43 23 WSW 992,1 10 0 0,0
17.01.2018 15:00:00 2,0 0,7 1,9 1,2 0,9 4,6 2,4 35 19 43 23 WSW 991,5 10 13 0,0
17.01.2018 14:00:00 2,1 0,6 2,0 0,8 0,8 4,6 2,4 35 19 41 22 WSW 990,9 9 0 0,0
17.01.2018 13:00:00 2,1 0,7 2,3 0,2 0,8 4,6 2,4 29 16 36 20 SW 990,3 9 0 0,0
17.01.2018 12:00:00 2,0 0,4 1,8 0,0 0,8 4,6 2,4 33 18 37 20 SW 990,0 11 19 0,0
17.01.2018 11:00:00 1,9 0,3 1,7 0,0 0,8 4,6 2,3 26 14 37 20 SW 989,8 15 0 0,0
17.01.2018 10:00:00 1,9 0,0 1,7 0,0 0,8 4,6 2,3 36 19 44 24 SW 989,2 17 4 0,0
17.01.2018 09:00:00 1,8 0,2 1,0 0,0 0,8 4,6 2,3 26 14 31 17 SW 988,7 19 0 0,0
17.01.2018 08:00:00 1,8 0,1 1,5 0,0 0,8 4,6 2,3 26 14 36 19 SW 988,2 17 0 0,0
17.01.2018 07:00:00 1,8 0,4 1,6 0,0 0,8 4,6 2,4 32 18 40 21 SW 987,7 14 0 0,0
17.01.2018 06:00:00 1,6 0,0 0,8 0,0 0,8 4,6 2,4 30 16 38 21 SW 987,4 16 0 0,0
17.01.2018 05:00:00 1,8 0,1 1,1 0,0 0,8 4,6 2,5 33 18 42 23 WSW 987,3 21 0 0,0
17.01.2018 04:00:00 1,8 0,2 1,3 0,0 0,8 4,6 2,6 31 17 40 22 WSW 987,4 20 0 0,0
17.01.2018 03:00:00 2,0 0,5 1,6 0,0 0,8 4,6 2,5 29 15 37 20 WSW 987,5 20 0 0,0
17.01.2018 02:00:00 1,9 0,5 1,5 0,0 0,8 4,7 2,4 29 16 36 20 WSW 987,6 18 0 0,0
17.01.2018 01:00:00 1,9 0,7 1,5 0,0 0,8 4,7 2,4 25 13 41 22 WSW 987,6 21 0 0,0
17.01.2018 00:00:00 2,0 0,7 1,6 0,0 0,8 4,7 2,4 31 17 41 22 WSW 987,3 20 0 0,0
16.01.2018 23:00:00 1,8 0,8 1,3 0,0 0,8 4,7 2,5 30 16 40 22 WSW 987,0 18 0 0,0
16.01.2018 22:00:00 1,9 1,0 1,4 0,0 0,8 4,7 2,4 31 17 42 23 WSW 986,9 12 0 0,0
16.01.2018 21:00:00 2,4 1,4 1,7 0,0 0,8 4,7 2,5 28 15 34 19 WSW 986,6 12 0 0,0
16.01.2018 20:00:00 2,6 1,6 1,9 0,0 0,7 4,7 2,5 23 12 26 14 SW 986,6 19 0 0,1
16.01.2018 19:00:00 2,5 1,9 1,9 0,0 0,7 4,7 2,4 17 9 38 21 SSW 986,6 17 0 0,1
16.01.2018 18:00:00 2,7 2,0 2,1 0,0 0,8 4,7 2,5 22 12 26 14 SSW 986,4 22 0 0,0
16.01.2018 17:00:00 2,6 2,1 2,1 0,0 0,8 4,7 2,4 22 12 29 16 SSW 986,6 13 0 0,0
16.01.2018 16:00:00 2,7 2,2 2,2 0,0 0,7 4,7 2,4 22 12 29 16 SSW 986,5 9 0 0,2
16.01.2018 15:00:00 2,7 2,2 2,4 0,0 0,8 4,7 2,4 17 9 28 15 S 986,5 7 0 0,2
16.01.2018 14:00:00 2,6 2,0 2,2 0,0 0,7 4,7 2,4 22 12 29 16 S 986,8 8 0 0,1
16.01.2018 13:00:00 2,6 2,0 2,5 -0,1 0,8 4,7 2,3 18 10 34 18 S 987,4 10 0 0,0
16.01.2018 12:00:00 2,5 1,8 2,0 -0,1 0,7 4,8 2,2 24 13 41 22 S 987,8 8 5 0,1
16.01.2018 11:00:00 2,6 1,8 2,1 -0,1 0,8 4,8 1,9 28 15 41 22 SSW 988,4 12 0 0,0
16.01.2018 10:00:00 1,9 1,2 1,2 -0,1 0,8 4,8 1,3 31 17 46 25 SSW 988,6 13 0 0,1
16.01.2018 09:00:00 1,6 0,8 0,4 -0,1 0,7 4,8 0,8 31 17 42 23 S 988,3 16 0 0,0
16.01.2018 08:00:00 1,2 0,6 0,0 -0,2 0,8 4,8 0,8 25 14 48 26 S 988,4 15 0 0,0
16.01.2018 07:00:00 0,8 0,5 0,0 -0,2 0,8 4,8 0,8 31 17 53 29 S 988,7 10 0 0,8
16.01.2018 06:00:00 0,1 0,0 0,0 -0,2 0,8 4,8 0,3 35 19 57 31 S 988,9 0,7 0 1,3
16.01.2018 05:00:00 0,4 -0,4 0,0 -0,2 0,8 4,8 0,7 38 21 68 37 S 989,7 1,3 0 0,1
16.01.2018 04:00:00 0,1 -0,5 0,0 -0,2 0,8 4,8 0,5 35 19 65 35 S 990,9 2,4 0 0,2
16.01.2018 03:00:00 0,1 -1,4 0,4 -0,2 0,8 4,8 0,5 38 20 65 35 S 992,5 2,5 0 0,0
16.01.2018 02:00:00 1,5 -2,7 1,2 -0,2 0,8 4,8 0,7 39 21 65 35 S 993,8 12 0 0,0
16.01.2018 01:00:00 1,4 -2,5 1,1 -0,2 0,8 4,8 0,6 36 19 63 34 SSE 995,5 12 0 0,0
16.01.2018 00:00:00 1,2 -2,3 1,0 -0,3 0,8 4,8 0,7 37 20 66 36 SSE 997,1 10 0 0,0
15.01.2018 23:00:00 1,0 -2,7 0,5 -0,4 0,8 4,8 0,6 39 21 63 34 SSE 998,8 11 0 0,0
15.01.2018 22:00:00 0,9 -2,5 0,3 -0,3 0,8 4,8 0,8 37 20 63 34 SSE 1000,5 10 0 0,0
15.01.2018 21:00:00 0,9 -2,7 0,7 -0,3 0,8 4,9 0,7 36 19 62 34 SSE 1002,1 9 0 0,0
15.01.2018 20:00:00 0,6 -2,9 0,3 -0,4 0,8 4,9 0,7 36 20 70 38 SSE 1003,8 8 0 0,0
15.01.2018 19:00:00 0,4 -3,3 -0,1 -0,3 0,8 4,9 0,9 37 20 64 34 SSE 1005,3 7 0 0,0
15.01.2018 18:00:00 0,8 -3,0 0,3 -0,3 0,8 4,9 1,1 37 20 62 34 SSE 1006,5 8 0 0,0
15.01.2018 17:00:00 0,9 -2,8 0,6 -0,2 0,8 4,9 1,2 39 21 61 33 SSE 1007,8 8 0 0,0
15.01.2018 16:00:00 1,0 -2,8 0,4 -0,2 0,8 4,9 1,1 34 18 59 32 SSE 1009,8 10 27 0,0
15.01.2018 15:00:00 0,7 -3,1 0,9 -0,2 0,8 4,9 1,2 32 18 53 29 SSE 1010,8 8 60 0,0
15.01.2018 14:00:00 0,2 -3,7 0,9 -0,2 0,8 4,9 1,2 33 18 56 31 SSE 1012,4 9 60 0,0
15.01.2018 13:00:00 -0,3 -3,9 0,6 -0,3 0,8 4,9 0,9 29 16 57 31 SSE 1014,0 5 60 0,0
15.01.2018 12:00:00 -1,0 -4,1 -0,2 -0,4 0,8 4,9 1,0 29 16 51 28 SSE 1015,9 5 57 0,0
15.01.2018 11:00:00 -1,3 -3,5 -1,3 -0,5 0,8 4,9 1,0 35 19 54 29 SSE 1017,6 4,7 7 0,0
15.01.2018 10:00:00 -1,7 -4,5 -1,5 -0,7 0,8 4,9 0,8 29 16 48 26 SSE 1018,9 6 0 0,0
15.01.2018 09:00:00 -1,9 -4,3 -1,9 -0,9 0,9 4,9 0,6 26 14 45 25 SSE 1019,9 6 0 0,0
15.01.2018 08:00:00 -2,3 -4,6 -2,8 -1,3 0,9 4,9 0,5 28 15 46 25 SSE 1021,0 6 0 0,0
15.01.2018 07:00:00 -2,2 -4,8 -3,1 -1,2 0,9 4,9 0,9 29 16 50 27 SSE 1021,4 6 0 0,0
15.01.2018 06:00:00 -1,9 -4,6 -2,8 -1,1 0,9 5,0 1,2 25 13 46 25 SSE 1022,2 5 0 0,0
15.01.2018 05:00:00 -1,4 -4,4 -2,4 -1,0 1,0 5,0 1,3 27 14 47 26 SSE 1023,2 6 0 0,0
15.01.2018 04:00:00 -1,6 -4,6 -2,6 -0,9 1,0 5,0 1,3 25 13 41 22 SSE 1024,0 8 0 0,0
15.01.2018 03:00:00 -1,7 -4,6 -2,3 -0,8 1,0 5,0 1,3 24 13 42 23 SSE 1025,2 7 0 0,0
15.01.2018 02:00:00 -1,7 -4,8 -2,7 -0,6 1,0 5,0 1,5 23 12 40 21 SSE 1026,0 6 0 0,0
15.01.2018 01:00:00 -1,6 -4,9 -2,3 -0,5 1,0 5,0 1,5 23 13 40 22 SSE 1026,7 7 0 0,0
15.01.2018 00:00:00 -1,4 -5,0 -1,7 -0,4 1,1 5,0 1,5 23 12 37 20 SSE 1027,3 8 0 0,0
14.01.2018 23:00:00 -1,4 -5,2 -1,6 -0,3 1,1 5,0 1,6 21 11 39 21 SSE 1028,0 9 0 0,0
14.01.2018 22:00:00 -1,6 -5,5 -1,8 -0,3 1,1 5,0 1,5 20 11 40 22 SSE 1028,4 9 0 0,0
14.01.2018 21:00:00 -1,7 -5,5 -1,8 -0,3 1,1 5,0 1,7 21 12 37 20 S 1028,6 11 0 0,0
14.01.2018 20:00:00 -1,8 -5,6 -1,9 -0,3 1,1 5,0 1,9 21 11 36 19 SSE 1029,0 7 0 0,0
14.01.2018 19:00:00 -1,9 -6,1 -1,9 -0,2 1,1 5,0 1,8 21 11 40 21 SSE 1029,4 4,6 0 0,0
14.01.2018 18:00:00 -2,0 -6,0 -2,0 -0,2 1,2 5,0 1,9 21 12 41 22 SSE 1029,7 6 0 0,0
14.01.2018 17:00:00 -2,1 -6,2 -2,1 -0,1 1,2 5,0 1,9 26 14 41 22 SE 1030,1 11 0 0,0
14.01.2018 16:00:00 -2,3 -6,5 -2,3 -0,1 1,2 5,0 1,9 22 12 37 20 SE 1030,4 13 0 0,0
14.01.2018 15:00:00 -2,4 -6,7 -2,3 -0,1 1,2 5,0 2,0 22 12 40 21 SSE 1030,8 11 0 0,0
14.01.2018 14:00:00 -2,5 -7,1 -2,2 0,0 1,2 5,0 2,1 22 12 37 20 SE 1031,1 12 0 0,0
14.01.2018 13:00:00 -2,2 -6,9 -1,9 0,0 1,2 5,1 2,1 21 12 37 20 SE 1031,5 14 0 0,0
14.01.2018 12:00:00 -1,7 -6,0 -1,3 0,0 1,2 5,1 2,2 23 13 38 21 SE 1031,9 14 0 0,0
14.01.2018 11:00:00 -1,7 -6,2 -1,4 0,0 1,3 5,1 2,2 22 12 36 19 SE 1032,5 15 4 0,0
14.01.2018 10:00:00 -1,6 -6,0 -1,5 0,0 1,3 5,1 2,2 27 14 37 20 SE 1032,4 16 0 0,0
14.01.2018 09:00:00 -0,9 -5,5 -1,1 0,0 1,3 5,1 2,2 16 9 35 19 SSE 1032,1 16 0 0,0
14.01.2018 08:00:00 -1,0 -5,8 -1,1 0,0 1,3 5,1 2,3 22 12 33 18 SE 1032,1 16 0 0,0
14.01.2018 07:00:00 -0,7 -5,2 -0,8 0,1 1,3 5,1 2,4 21 11 36 19 SE 1032,1 14 0 0,0
14.01.2018 06:00:00 -0,7 -5,5 -0,9 0,1 1,3 5,1 2,4 22 12 34 18 SE 1032,3 15 0 0,0
14.01.2018 05:00:00 -0,5 -5,3 -0,7 0,1 1,3 5,1 2,5 19 10 35 19 SE 1032,4 15 0 0,0
14.01.2018 04:00:00 -0,3 -5,3 -0,5 0,1 1,4 5,1 2,6 21 11 34 18 SE 1032,6 16 0 0,0
14.01.2018 03:00:00 -0,2 -5,2 -0,4 0,1 1,4 5,1 2,5 22 12 36 20 ESE 1032,9 15 0 0,0
14.01.2018 02:00:00 -0,1 -5,3 -0,3 0,1 1,4 5,1 2,6 22 12 36 20 SE 1033,0 15 0 0,0
14.01.2018 01:00:00 -0,1 -5,5 -0,3 0,1 1,4 5,1 2,6 22 12 40 21 SE 1033,2 17 0 0,0
14.01.2018 00:00:00 0,0 -5,2 -0,2 0,2 1,4 5,1 2,7 23 13 37 20 ESE 1033,6 18 0 0,0
13.01.2018 23:00:00 -0,1 -5,4 -0,3 0,2 1,5 5,1 2,7 23 13 40 21 SE 1033,7 19 0 0,0
13.01.2018 22:00:00 -0,2 -5,3 -0,4 0,2 1,5 5,1 2,7 25 14 42 23 SE 1033,9 19 0 0,0
13.01.2018 21:00:00 -0,2 -5,0 -0,4 0,2 1,5 5,1 2,9 29 16 47 25 SE 1034,2 18 0 0,0
13.01.2018 20:00:00 0,4 -4,3 0,1 0,2 1,6 5,1 3,0 31 17 46 25 ESE 1034,2 24 0 0,0
13.01.2018 19:00:00 0,5 -4,7 0,2 0,2 1,6 5,1 2,8 27 15 46 25 ESE 1034,2 29 0 0,0
13.01.2018 18:00:00 0,1 -4,6 -0,2 0,2 1,6 5,1 2,8 24 13 40 22 ESE 1034,4 25 0 0,0
13.01.2018 17:00:00 -0,4 -5,3 -1,0 0,3 1,7 5,1 2,8 22 12 34 19 SE 1034,3 25 0 0,0
13.01.2018 16:00:00 -0,8 -5,5 -1,0 0,3 1,8 5,1 2,8 22 12 35 19 ESE 1034,4 25 0 0,0
13.01.2018 15:00:00 -0,8 -5,7 -0,8 0,5 1,8 5,1 2,8 21 11 37 20 SE 1034,5 25 0 0,0
13.01.2018 14:00:00 -0,2 -4,6 0,0 1,1 1,8 5,1 2,8 24 13 41 22 SE 1034,5 22 9 0,0
13.01.2018 13:00:00 0,0 -4,5 0,3 1,2 1,8 5,1 2,8 30 16 42 23 SE 1034,8 21 41 0,0
13.01.2018 12:00:00 0,2 -3,6 1,3 1,3 1,7 5,1 2,8 27 14 47 25 SSE 1034,9 8 60 0,0
13.01.2018 11:00:00 0,4 -3,1 0,0 0,4 1,7 5,1 2,8 27 15 53 29 SSE 1034,8 8 54 0,0
13.01.2018 10:00:00 0,0 -2,9 0,0 0,3 1,7 5,1 2,8 29 16 43 23 SE 1034,8 11 0 0,0
13.01.2018 09:00:00 0,2 -2,3 0,1 0,3 1,7 5,1 2,8 26 14 37 20 SE 1034,6 10 0 0,0
13.01.2018 08:00:00 0,1 -2,4 0,0 0,3 1,8 5,1 2,9 26 14 36 19 SE 1034,5 9 0 0,0
13.01.2018 07:00:00 0,0 -2,3 0,0 0,3 1,8 5,1 2,9 21 12 37 20 SE 1034,3 6 0 0,0
13.01.2018 06:00:00 0,0 -2,2 0,0 0,4 1,9 5,1 3,0 20 11 36 19 SE 1034,3 7 0 0,0
13.01.2018 05:00:00 0,1 -2,1 0,0 0,5 2,0 5,1 3,0 22 12 34 18 SE 1034,3 6 0 0,0
13.01.2018 04:00:00 0,2 -1,8 0,1 0,5 2,0 5,1 3,1 20 11 31 17 ESE 1034,4 6 0 0,0
13.01.2018 03:00:00 0,2 -1,9 0,1 0,6 2,1 5,1 3,0 21 11 36 19 ESE 1034,3 5 0 0,0
13.01.2018 02:00:00 0,3 -1,7 0,3 0,7 2,2 5,1 3,1 21 12 32 17 ESE 1034,1 5 0 0,0
13.01.2018 01:00:00 0,6 -1,4 0,4 0,9 2,2 5,1 3,1 21 11 32 18 ESE 1034,0 6 0 0,0
13.01.2018 00:00:00 0,7 -1,2 0,6 1,0 2,3 5,1 3,1 23 12 35 19 ESE 1034,0 7 0 0,0
12.01.2018 23:00:00 0,8 -0,9 0,7 1,1 2,3 5,1 3,1 24 13 33 18 ESE 1033,9 7 0 0,0
12.01.2018 22:00:00 1,0 -1,0 0,9 1,2 2,4 5,1 3,1 23 12 33 18 ESE 1033,7 8 0 0,0
12.01.2018 21:00:00 1,1 -1,0 1,0 1,3 2,5 5,1 3,2 23 12 35 19 ESE 1033,5 10 0 0,0
12.01.2018 20:00:00 1,4 -0,6 1,3 1,4 2,5 5,1 3,2 24 13 39 21 ESE 1032,8 10 0 0,0
12.01.2018 19:00:00 1,7 -0,6 1,5 1,6 2,6 5,1 3,3 27 15 40 22 ESE 1032,5 11 0 0,0
12.01.2018 18:00:00 2,0 -0,4 1,8 1,8 2,6 5,1 3,2 29 16 36 19 ESE 1032,3 12 0 0,0
12.01.2018 17:00:00 2,1 -0,2 1,9 1,9 2,6 5,1 3,2 24 13 31 17 ESE 1032,1 13 0 0,0
12.01.2018 16:00:00 2,1 0,1 2,0 2,1 2,6 5,1 3,2 22 12 31 17 E 1031,8 13 0 0,0
12.01.2018 15:00:00 2,2 0,3 2,2 2,4 2,6 5,1 3,2 21 11 30 16 E 1031,7 13 0 0,0
12.01.2018 14:00:00 2,1 0,2 2,2 2,6 2,5 5,1 3,2 24 13 35 19 E 1031,2 14 0 0,0
12.01.2018 13:00:00 2,2 0,2 2,5 2,6 2,4 5,1 3,2 26 14 34 19 E 1030,9 17 0 0,0
12.01.2018 12:00:00 2,5 0,4 2,7 2,4 2,3 5,1 3,2 24 13 31 17 E 1030,9 18 0 0,0
12.01.2018 11:00:00 2,6 0,4 2,6 2,0 2,2 5,1 3,2 24 13 35 19 E 1030,8 21 0 0,0
12.01.2018 10:00:00 2,8 0,3 2,5 1,6 2,2 5,1 3,1 26 14 36 20 E 1030,1 27 0 0,0
12.01.2018 09:00:00 2,5 -0,5 2,1 1,2 2,2 5,1 3,1 19 11 36 19 ESE 1029,7 27 0 0,0
12.01.2018 08:00:00 1,9 -0,7 1,6 1,1 2,3 5,1 3,2 23 13 34 18 ESE 1028,8 15 0 0,0
12.01.2018 07:00:00 1,2 -1,4 1,0 1,1 2,3 5,1 3,3 23 12 36 20 ESE 1028,4 13 0 0,0
12.01.2018 06:00:00 1,1 -0,9 1,0 1,3 2,4 5,1 3,3 27 15 36 19 E 1027,9 18 0 0,0

tt = Température de l'air
td = dewpoint
tt 5cm = Température de l'air 5cm
tt -5cm = Température de l'air -5cm
tt -20cm = Température de l'air -20cm
tt -100cm = Température de l'air -100cm
tw = water temperature
ff = Vitesse du vent
fx = gusts
dd = Direction du vent
ppp = reduced air pressure
vv = visibility
sd = Ensoleillement
rr = Quantités de précipitations

stations d'obs. à proximité